Wählen Sie einen anderen Zeitraum ( Verstecke diesen Bereich )

Einheiten Zeitraum Benutzerdefinierten Bereich Direkt zu
Metrisch Englisch Beide
Tägliche Wöchentliche Monatliche Jährlich
Verwenden Sie beide Datumsselektoren für einen benutzerdefinierten Bereich
vorherige Tag
Mit diesem Datum

Wetter Underground Graphen für diesen Zeitraum ( Klick hier ) Das Laden der Grafik kann bis zu einer Minute dauern!


Tägliche Zusammenfassung für Dienstag Jan 21 2020
Zeit Temp. ( °C ) Taupunkt ( °C ) Wind ( km/h ) Von Windböen ( km/h ) Luftdruck ( hPa ) Feuchtigkeit( % ) Niederschlagsrate ( cm ) Solar ( W/m2 )
Hoch3,4 -0,8 4,8 OSO ( 35/99 ) 11,3 1044,5 94 - 390
Durchchnittswerte-1,2 -2,8 0,6 Windstille #143/178 1,7 1043,1 89 - 199 #70/178
Wenig-3,6 -4,4 -   0,0 1040,6 73 -  
Tägliche Tabellarische Details für Dienstag Jan 21 2020
Zeit Temp. ( °C ) Taupunkt ( °C ) Wind ( km/h ) Von Windböen ( km/h ) Luftdruck ( hPa ) Feuchtigkeit( % ) Niederschlagsrate ( cm ) Solar ( W/m2 )
00:00 -1,2 -2,5   Windstille   1044,4 91 - -
00:05 -1,2 -2,4   Windstille   1044,4 91 - -
00:10 -1,1 -2,3   Windstille   1044,4 91 - -
00:15 -1,1 -2,4   Windstille   1044,5 91 - -
00:20 -1,2 -2,5   Windstille   1044,4 91 - -
00:25 -0,9 -2,1   Windstille   1044,3 92 - -
00:30 -0,7 -2,0   Windstille   1044,3 91 - -
00:35 -0,7 -2,1   Windstille   1044,3 90 - -
00:40 -0,8 -2,2   Windstille   1044,2 90 - -
00:45 -0,9 -2,3   Windstille   1044,2 90 - -
00:50 -0,9 -2,3   Windstille   1044,1 90 - -
00:55 -0,9 -2,4   Windstille   1044,1 90 - -
01:00 -0,9 -2,3   Windstille   1044,1 91 - -
01:05 -1,0 -2,3   Windstille   1044,1 91 - -
01:10 -1,3 -2,6   Windstille   1044,1 91 - -
01:15 -1,3 -2,6   Windstille   1044,0 91 - -
01:20 -1,4 -2,5   Windstille   1044,0 92 - -
01:25 -1,4 -2,7   Windstille   1044,0 91 - -
01:30 -1,4 -2,5   Windstille   1044,0 92 - -
01:35 -1,3 -2,6   Windstille   1043,9 91 - -
01:40 -1,4 -2,7   Windstille   1044,0 91 - -
01:45 -1,6 -2,8   Windstille   1043,9 91 - -
01:50 -1,6 -2,7   Windstille   1043,9 92 - -
01:55 -1,6 -2,7   Windstille   1043,9 92 - -
02:00 -1,6 -2,7   Windstille   1043,9 92 - -
02:05 -1,9 -3,1   Windstille   1043,8 92 - -
02:10 -2,1 -3,2   Windstille   1043,8 92 - -
02:15 -2,2 -3,4   Windstille   1043,8 92 - -
02:20 -2,3 -3,3   Windstille   1043,8 93 - -
02:25 -2,3 -3,3   Windstille   1043,9 93 - -
02:30 -2,4 -3,4   Windstille   1043,8 93 - -
02:35 -2,4 -3,4   Windstille   1043,8 93 - -
02:40 -2,5 -3,5   Windstille   1043,8 93 - -
02:45 -2,4 -3,4   Windstille   1043,8 93 - -
02:50 -2,6 -3,6   Windstille   1043,8 93 - -
02:55 -2,7 -3,7   Windstille   1043,8 93 - -
03:00 -2,8 -3,8   Windstille   1043,7 93 - -
03:05 -2,8 -3,8   Windstille   1043,7 93 - -
03:10 -2,9 -3,9   Windstille   1043,7 93 - -
03:15 -2,9 -3,9   Windstille   1043,6 93 - -
03:20 -2,9 -3,9   Windstille   1043,5 93 - -
03:25 -3,0 -4,0   Windstille   1043,5 93 - -
03:30 -3,1 -3,9   Windstille   1043,5 94 - -
03:35 -3,1 -4,0   Windstille   1043,5 93 - -
03:40 -3,1 -3,9   Windstille   1043,5 94 - -
03:45 -3,2 -4,1   Windstille   1043,5 93 - -
03:50 -3,1 -4,1   Windstille   1043,5 93 - -
03:55 -3,2 -4,1   Windstille   1043,4 93 - -
04:00 -3,1 -4,1   Windstille   1043,4 93 - -
04:05 -3,2 -4,2   Windstille   1043,3 93 - -
04:10 -3,3 -4,3   Windstille   1043,2 93 - -
04:15 -3,2 -4,0   Windstille   1043,2 94 - -
04:20 -3,2 -4,2   Windstille   1043,2 93 - -
04:25 -3,3 -4,1   Windstille   1043,2 94 - -
04:30 -3,2 -4,1   Windstille   1043,2 94 - -
04:35 -3,1 -3,9   Windstille   1043,2 94 - -
04:40 -2,9 -3,8   Windstille   1043,3 94 - -
04:45 -2,8 -3,6   Windstille   1043,2 94 - -
04:50 -2,7 -3,6   Windstille   1043,1 94 - -
04:55 -2,6 -3,4   Windstille   1043,1 94 - -
05:00 -2,4 -3,3   Windstille   1043,1 94 - -
05:05 -2,4 -3,3   Windstille   1043,2 94 - -
05:10 -2,3 -3,2   Windstille   1043,1 94 - -
05:15 -2,2 -3,1   Windstille   1043,0 94 - -
05:20 -2,2 -3,0   Windstille   1043,0 94 - -
05:25 -2,1 -2,9   Windstille   1042,9 94 - -
05:30 -2,0 -2,8   Windstille   1043,0 94 - -
05:35 -2,1 -3,0   Windstille   1042,9 93 - -
05:40 -1,9 -2,7   Windstille   1042,9 94 - -
05:45 -1,8 -2,8   Windstille   1042,9 93 - -
05:50 -1,8 -2,8   Windstille   1042,9 93 - -
05:55 -1,8 -2,8   Windstille   1042,9 93 - -
06:00 -1,8 -2,8   Windstille   1042,9 93 - -
06:05 -1,8 -2,8   Windstille   1042,9 93 - -
06:10 -1,8 -2,8   Windstille   1042,9 93 - -
06:15 -2,0 -2,9   Windstille   1043,0 93 - -
06:20 -2,2 -3,1   Windstille   1042,9 93 - -
06:25 -2,2 -3,2   Windstille   1043,0 93 - -
06:30 -2,4 -3,4   Windstille   1042,9 93 - -
06:35 -2,3 -3,3   Windstille   1042,9 93 - -
06:40 -2,3 -3,3   Windstille   1043,0 93 - -
06:45 -2,3 -3,3   Windstille   1043,1 93 - -
06:50 -2,6 -3,5   Windstille   1043,1 93 - -
06:55 -2,7 -3,7   Windstille   1043,2 93 - -
07:00 -2,8 -3,8   Windstille   1043,1 93 - -
07:05 -2,8 -3,8   Windstille   1043,2 93 - -
07:10 -2,8 -3,7   Windstille   1043,1 94 - -
07:15 -3,1 -4,1   Windstille   1043,1 93 - -
07:20 -3,2 -4,0   Windstille   1043,2 94 - -
07:25 -3,1 -4,1   Windstille   1043,2 93 - -
07:30 -3,2 -4,1   Windstille   1043,2 94 - -
07:35 -3,2 -4,0   Windstille   1043,1 94 - -
07:40 -3,2 -4,1   Windstille   1043,1 94 - -
07:45 -3,3 -4,1   Windstille   1043,1 94 - -
07:50 -3,3 -4,1   Windstille   1043,1 94 - -
07:55 -3,3 -4,1   Windstille   1043,2 94 - -
08:00 -3,4 -4,2   Windstille   1043,2 94 - -
08:05 -3,4 -4,3   Windstille   1043,2 94 - -
08:10 -3,5 -4,3   Windstille   1043,2 94 - 7
08:15 -3,5 -4,3   Windstille   1043,2 94 - 9
08:20 -3,5 -4,3   Windstille   1043,2 94 - 11
08:25 -3,5 -4,3   Windstille   1043,2 94 - 12
08:30 -3,5 -4,3   Windstille   1043,2 94 - 16
08:35 -3,6 -4,4   Windstille   1043,2 94 - 19
08:40 -3,4 -4,3   Windstille   1043,1 94 - 21
08:45 -3,4 -4,2   Windstille   1043,2 94 - 26
08:50 -3,3 -4,1   Windstille   1043,3 94 - 30
08:55 -3,1 -3,9   Windstille   1043,4 94 - 30
09:00 -2,9 -3,7   Windstille   1043,5 94 - 33
09:05 -2,6 -3,4   Windstille   1043,5 94 - 33
09:10 -2,4 -3,2   Windstille   1043,5 94 - 37
09:15 -2,3 -3,1   Windstille   1043,5 94 - 46
09:20 -2,2 -3,2   Windstille   1043,6 93 - 46
09:25 -2,0 -2,8   Windstille   1043,5 94 - 63
09:30 -1,9 -2,9   Windstille   1043,5 93 - 70
09:35 -1,8 -2,8   Windstille   1043,5 93 - 69
09:40 -1,8 -2,8   Windstille   1043,5 93 - 76
09:45 -1,7 -2,7   Windstille   1043,5 93 - 83
09:50 -1,6 -2,5   Windstille   1043,6 93 - 81
09:55 -1,4 -2,5   Windstille   1043,5 92 - 86
10:00 -1,4 -2,4   Windstille   1043,5 93 - 86
10:05 -1,4 -2,4   Windstille   1043,4 93 - 86
10:10 -1,4 -2,4   Windstille   1043,4 93 - 86
10:15 -1,4 -2,4   Windstille   1043,3 93 - -
10:20 -1,4 -2,4   Windstille   1043,3 93 - -
10:25 -1,4 -2,4   Windstille   1043,2 93 - -
10:30 -1,4 -2,4   Windstille   1043,2 93 - -
10:35 -1,4 -2,4   Windstille   1043,2 93 - -
10:40 -1,4 -2,4   Windstille   1043,2 93 - -
10:45 -1,4 -2,4   Windstille   1043,2 93 - -
10:50 -1,4 -2,4   Windstille   1043,1 93 - -
10:55 -1,4 -2,4   Windstille   1043,2 93 - -
11:00 -1,4 -2,4   Windstille   1043,1 93 - -
11:05 0,7 -1,4   Windstille   1043,1 86 - 311
11:10 0,8 -1,6   Windstille   1043,2 84 - 204
11:15 0,7 -1,7   Windstille   1043,2 84 - 197
11:20 0,7 -1,7   Windstille   1043,1 84 - 200
11:25 0,8 -1,8   Windstille   1043,0 83 - 213
11:30 0,8 -1,8   Windstille   1043,1 83 - 193
11:35 0,9 -1,7 4,8 OSO 9,7 1043,1 83 - 236
11:40 1,1 -1,7 4,8 OSO 9,7 1043,0 82 - 218
11:45 1,1 -1,8 3,2 OSO 9,7 1043,0 81 - 200
11:50 1,1 -1,7 4,8 Osten 9,7 1043,0 82 - 302
11:55 1,1 -1,8 1,6 Osten 8,0 1042,9 81 - 190
12:00 1,3 -1,4 4,8 OSO 9,7 1042,8 82 - 390
12:05 1,2 -1,7 3,2 Osten 9,7 1042,8 81 - 186
12:10 1,1 -1,8 3,2 Osten 8,0 1042,7 81 - 200
12:15 1,3 -1,8 3,2 OSO 8,0 1042,7 80 - 352
12:20 1,4 -1,7 3,2 OSO 8,0 1042,6 80 - 165
12:25 1,5 -1,2 1,6 Osten 4,8 1042,5 82 - 364
12:30 1,8 -1,3 1,6 Osten 3,2 1042,5 80 - 290
12:35 1,8 -1,4 3,2 SSO 4,8 1042,4 79 - 360
12:40 2,1 -1,6 3,2 SSW 8,0 1042,4 77 - 355
12:45 2,0 -1,4   Windstille 4,8 1042,3 78 - 357
12:50 2,2 -1,3   Windstille   1042,3 78 - 352
12:55 2,3 -1,3   Windstille   1042,1 77 - 348
13:00 2,2 -1,2 1,6 SSO 4,8 1042,1 78 - 346
13:05 2,2 -1,2 1,6 SO 4,8 1042,1 78 - 350
13:10 2,6 -1,0 1,6 Süden 9,7 1042,0 77 - 350
13:15 2,6 -1,0 1,6 Süden 9,7 1041,9 77 - 339
13:20 2,8 -1,1 3,2 SSO 9,7 1041,8 76 - 339
13:25 2,8 -1,2 1,6 SSO 9,7 1041,8 75 - 338
13:30 2,7 -1,3 1,6 SSO 9,7 1041,7 75 - 338
13:35 2,8 -1,2 1,6 SSO 4,8 1041,6 75 - 327
13:40 2,8 -1,3 1,6 SSW 4,8 1041,5 74 - 318
13:45 2,7 -1,3 1,6 Süden 8,0 1041,4 75 - 309
13:50 3,2 -0,8   Windstille 8,0 1041,3 75 - 304
13:55 3,3 -0,9 1,6 SSO 9,7 1041,3 74 - 301
14:00 3,2 -0,9 3,2 SW 4,8 1041,1 74 - 294
14:05 3,4 -1,0 3,2 Süden 9,7 1041,1 73 - 292
14:10 3,2 -1,0 3,2 SO 9,7 1041,1 74 - 281
14:15 3,2 -1,1 3,2 SO 8,0 1041,0 74 - 276
14:20 3,2 -1,0 4,8 OSO 8,0 1041,0 74 - 267
14:25 3,2 -1,0 3,2 SO 9,7 1040,9 74 - 260
14:30 3,2 -1,0 4,8 OSO 9,7 1040,8 74 - 251
14:35 3,3 -0,9 3,2 Osten 8,0 1040,7 74 - 244
14:40 3,3 -0,9 1,6 OSO 8,0 1040,7 74 - 239
14:45 3,3 -0,8 3,2 SSO 11,3 1040,6 74 - 229
Tägliche Zusammenfassung für Dienstag Jan 21 2020
Zeit Temp. ( °C ) Taupunkt ( °C ) Wind ( km/h ) Von Windböen ( km/h ) Luftdruck ( hPa ) Feuchtigkeit( % ) Niederschlagsrate ( cm ) Solar ( W/m2 )
Hoch3,4 -0,8 4,8 OSO ( 35/99 ) 11,3 1044,5 94 - 390
Durchchnittswerte-1,2 -2,8 0,6 Windstille #143/178 1,7 1043,1 89 - 199 #70/178
Wenig-3,6 -4,4 -   0,0 1040,6 73 -  
Tägliche Tabellarische Details für Dienstag Jan 21 2020
Zeit Temp. ( °C ) Taupunkt ( °C ) Wind ( km/h ) Von Windböen ( km/h ) Luftdruck ( hPa ) Feuchtigkeit( % ) Niederschlagsrate ( cm ) Solar ( W/m2 )
00:00 -1,2 -2,5   Windstille   1044,4 91 - -
00:05 -1,2 -2,4   Windstille   1044,4 91 - -
00:10 -1,1 -2,3   Windstille   1044,4 91 - -
00:15 -1,1 -2,4   Windstille   1044,5 91 - -
00:20 -1,2 -2,5   Windstille   1044,4 91 - -
00:25 -0,9 -2,1   Windstille   1044,3 92 - -
00:30 -0,7 -2,0   Windstille   1044,3 91 - -
00:35 -0,7 -2,1   Windstille   1044,3 90 - -
00:40 -0,8 -2,2   Windstille   1044,2 90 - -
00:45 -0,9 -2,3   Windstille   1044,2 90 - -
00:50 -0,9 -2,3   Windstille   1044,1 90 - -
00:55 -0,9 -2,4   Windstille   1044,1 90 - -
01:00 -0,9 -2,3   Windstille   1044,1 91 - -
01:05 -1,0 -2,3   Windstille   1044,1 91 - -
01:10 -1,3 -2,6   Windstille   1044,1 91 - -
01:15 -1,3 -2,6   Windstille   1044,0 91 - -
01:20 -1,4 -2,5   Windstille   1044,0 92 - -
01:25 -1,4 -2,7   Windstille   1044,0 91 - -
01:30 -1,4 -2,5   Windstille   1044,0 92 - -
01:35 -1,3 -2,6   Windstille   1043,9 91 - -
01:40 -1,4 -2,7   Windstille   1044,0 91 - -
01:45 -1,6 -2,8   Windstille   1043,9 91 - -
01:50 -1,6 -2,7   Windstille   1043,9 92 - -
01:55 -1,6 -2,7   Windstille   1043,9 92 - -
02:00 -1,6 -2,7   Windstille   1043,9 92 - -
02:05 -1,9 -3,1   Windstille   1043,8 92 - -
02:10 -2,1 -3,2   Windstille   1043,8 92 - -
02:15 -2,2 -3,4   Windstille   1043,8 92 - -
02:20 -2,3 -3,3   Windstille   1043,8 93 - -
02:25 -2,3 -3,3   Windstille   1043,9 93 - -
02:30 -2,4 -3,4   Windstille   1043,8 93 - -
02:35 -2,4 -3,4   Windstille   1043,8 93 - -
02:40 -2,5 -3,5   Windstille   1043,8 93 - -
02:45 -2,4 -3,4   Windstille   1043,8 93 - -
02:50 -2,6 -3,6   Windstille   1043,8 93 - -
02:55 -2,7 -3,7   Windstille   1043,8 93 - -
03:00 -2,8 -3,8   Windstille   1043,7 93 - -
03:05 -2,8 -3,8   Windstille   1043,7 93 - -
03:10 -2,9 -3,9   Windstille   1043,7 93 - -
03:15 -2,9 -3,9   Windstille   1043,6 93 - -
03:20 -2,9 -3,9   Windstille   1043,5 93 - -
03:25 -3,0 -4,0   Windstille   1043,5 93 - -
03:30 -3,1 -3,9   Windstille   1043,5 94 - -
03:35 -3,1 -4,0   Windstille   1043,5 93 - -
03:40 -3,1 -3,9   Windstille   1043,5 94 - -
03:45 -3,2 -4,1   Windstille   1043,5 93 - -
03:50 -3,1 -4,1   Windstille   1043,5 93 - -
03:55 -3,2 -4,1   Windstille   1043,4 93 - -
04:00 -3,1 -4,1   Windstille   1043,4 93 - -
04:05 -3,2 -4,2   Windstille   1043,3 93 - -
04:10 -3,3 -4,3   Windstille   1043,2 93 - -
04:15 -3,2 -4,0   Windstille   1043,2 94 - -
04:20 -3,2 -4,2   Windstille   1043,2 93 - -
04:25 -3,3 -4,1   Windstille   1043,2 94 - -
04:30 -3,2 -4,1   Windstille   1043,2 94 - -
04:35 -3,1 -3,9   Windstille   1043,2 94 - -
04:40 -2,9 -3,8   Windstille   1043,3 94 - -
04:45 -2,8 -3,6   Windstille   1043,2 94 - -
04:50 -2,7 -3,6   Windstille   1043,1 94 - -
04:55 -2,6 -3,4   Windstille   1043,1 94 - -
05:00 -2,4 -3,3   Windstille   1043,1 94 - -
05:05 -2,4 -3,3   Windstille   1043,2 94 - -
05:10 -2,3 -3,2   Windstille   1043,1 94 - -
05:15 -2,2 -3,1   Windstille   1043,0 94 - -
05:20 -2,2 -3,0   Windstille   1043,0 94 - -
05:25 -2,1 -2,9   Windstille   1042,9 94 - -
05:30 -2,0 -2,8   Windstille   1043,0 94 - -
05:35 -2,1 -3,0   Windstille   1042,9 93 - -
05:40 -1,9 -2,7   Windstille   1042,9 94 - -
05:45 -1,8 -2,8   Windstille   1042,9 93 - -
05:50 -1,8 -2,8   Windstille   1042,9 93 - -
05:55 -1,8 -2,8   Windstille   1042,9 93 - -
06:00 -1,8 -2,8   Windstille   1042,9 93 - -
06:05 -1,8 -2,8   Windstille   1042,9 93 - -
06:10 -1,8 -2,8   Windstille   1042,9 93 - -
06:15 -2,0 -2,9   Windstille   1043,0 93 - -
06:20 -2,2 -3,1   Windstille   1042,9 93 - -
06:25 -2,2 -3,2   Windstille   1043,0 93 - -
06:30 -2,4 -3,4   Windstille   1042,9 93 - -
06:35 -2,3 -3,3   Windstille   1042,9 93 - -
06:40 -2,3 -3,3   Windstille   1043,0 93 - -
06:45 -2,3 -3,3   Windstille   1043,1 93 - -
06:50 -2,6 -3,5   Windstille   1043,1 93 - -
06:55 -2,7 -3,7   Windstille   1043,2 93 - -
07:00 -2,8 -3,8   Windstille   1043,1 93 - -
07:05 -2,8 -3,8   Windstille   1043,2 93 - -
07:10 -2,8 -3,7   Windstille   1043,1 94 - -
07:15 -3,1 -4,1   Windstille   1043,1 93 - -
07:20 -3,2 -4,0   Windstille   1043,2 94 - -
07:25 -3,1 -4,1   Windstille   1043,2 93 - -
07:30 -3,2 -4,1   Windstille   1043,2 94 - -
07:35 -3,2 -4,0   Windstille   1043,1 94 - -
07:40 -3,2 -4,1   Windstille   1043,1 94 - -
07:45 -3,3 -4,1   Windstille   1043,1 94 - -
07:50 -3,3 -4,1   Windstille   1043,1 94 - -
07:55 -3,3 -4,1   Windstille   1043,2 94 - -
08:00 -3,4 -4,2   Windstille   1043,2 94 - -
08:05 -3,4 -4,3   Windstille   1043,2 94 - -
08:10 -3,5 -4,3   Windstille   1043,2 94 - 7
08:15 -3,5 -4,3   Windstille   1043,2 94 - 9
08:20 -3,5 -4,3   Windstille   1043,2 94 - 11
08:25 -3,5 -4,3   Windstille   1043,2 94 - 12
08:30 -3,5 -4,3   Windstille   1043,2 94 - 16
08:35 -3,6 -4,4   Windstille   1043,2 94 - 19
08:40 -3,4 -4,3   Windstille   1043,1 94 - 21
08:45 -3,4 -4,2   Windstille   1043,2 94 - 26
08:50 -3,3 -4,1   Windstille   1043,3 94 - 30
08:55 -3,1 -3,9   Windstille   1043,4 94 - 30
09:00 -2,9 -3,7   Windstille   1043,5 94 - 33
09:05 -2,6 -3,4   Windstille   1043,5 94 - 33
09:10 -2,4 -3,2   Windstille   1043,5 94 - 37
09:15 -2,3 -3,1   Windstille   1043,5 94 - 46
09:20 -2,2 -3,2   Windstille   1043,6 93 - 46
09:25 -2,0 -2,8   Windstille   1043,5 94 - 63
09:30 -1,9 -2,9   Windstille   1043,5 93 - 70
09:35 -1,8 -2,8   Windstille   1043,5 93 - 69
09:40 -1,8 -2,8   Windstille   1043,5 93 - 76
09:45 -1,7 -2,7   Windstille   1043,5 93 - 83
09:50 -1,6 -2,5   Windstille   1043,6 93 - 81
09:55 -1,4 -2,5   Windstille   1043,5 92 - 86
10:00 -1,4 -2,4   Windstille   1043,5 93 - 86
10:05 -1,4 -2,4   Windstille   1043,4 93 - 86
10:10 -1,4 -2,4   Windstille   1043,4 93 - 86
10:15 -1,4 -2,4   Windstille   1043,3 93 - -
10:20 -1,4 -2,4   Windstille   1043,3 93 - -
10:25 -1,4 -2,4   Windstille   1043,2 93 - -
10:30 -1,4 -2,4   Windstille   1043,2 93 - -
10:35 -1,4 -2,4   Windstille   1043,2 93 - -
10:40 -1,4 -2,4   Windstille   1043,2 93 - -
10:45 -1,4 -2,4   Windstille   1043,2 93 - -
10:50 -1,4 -2,4   Windstille   1043,1 93 - -
10:55 -1,4 -2,4   Windstille   1043,2 93 - -
11:00 -1,4 -2,4   Windstille   1043,1 93 - -
11:05 0,7 -1,4   Windstille   1043,1 86 - 311
11:10 0,8 -1,6   Windstille   1043,2 84 - 204
11:15 0,7 -1,7   Windstille   1043,2 84 - 197
11:20 0,7 -1,7   Windstille   1043,1 84 - 200
11:25 0,8 -1,8   Windstille   1043,0 83 - 213
11:30 0,8 -1,8   Windstille   1043,1 83 - 193
11:35 0,9 -1,7 4,8 OSO 9,7 1043,1 83 - 236
11:40 1,1 -1,7 4,8 OSO 9,7 1043,0 82 - 218
11:45 1,1 -1,8 3,2 OSO 9,7 1043,0 81 - 200
11:50 1,1 -1,7 4,8 Osten 9,7 1043,0 82 - 302
11:55 1,1 -1,8 1,6 Osten 8,0 1042,9 81 - 190
12:00 1,3 -1,4 4,8 OSO 9,7 1042,8 82 - 390
12:05 1,2 -1,7 3,2 Osten 9,7 1042,8 81 - 186
12:10 1,1 -1,8 3,2 Osten 8,0 1042,7 81 - 200
12:15 1,3 -1,8 3,2 OSO 8,0 1042,7 80 - 352
12:20 1,4 -1,7 3,2 OSO 8,0 1042,6 80 - 165
12:25 1,5 -1,2 1,6 Osten 4,8 1042,5 82 - 364
12:30 1,8 -1,3 1,6 Osten 3,2 1042,5 80 - 290
12:35 1,8 -1,4 3,2 SSO 4,8 1042,4 79 - 360
12:40 2,1 -1,6 3,2 SSW 8,0 1042,4 77 - 355
12:45 2,0 -1,4   Windstille 4,8 1042,3 78 - 357
12:50 2,2 -1,3   Windstille   1042,3 78 - 352
12:55 2,3 -1,3   Windstille   1042,1 77 - 348
13:00 2,2 -1,2 1,6 SSO 4,8 1042,1 78 - 346
13:05 2,2 -1,2 1,6 SO 4,8 1042,1 78 - 350
13:10 2,6 -1,0 1,6 Süden 9,7 1042,0 77 - 350
13:15 2,6 -1,0 1,6 Süden 9,7 1041,9 77 - 339
13:20 2,8 -1,1 3,2 SSO 9,7 1041,8 76 - 339
13:25 2,8 -1,2 1,6 SSO 9,7 1041,8 75 - 338
13:30 2,7 -1,3 1,6 SSO 9,7 1041,7 75 - 338
13:35 2,8 -1,2 1,6 SSO 4,8 1041,6 75 - 327
13:40 2,8 -1,3 1,6 SSW 4,8 1041,5 74 - 318
13:45 2,7 -1,3 1,6 Süden 8,0 1041,4 75 - 309
13:50 3,2 -0,8   Windstille 8,0 1041,3 75 - 304
13:55 3,3 -0,9 1,6 SSO 9,7 1041,3 74 - 301
14:00 3,2 -0,9 3,2 SW 4,8 1041,1 74 - 294
14:05 3,4 -1,0 3,2 Süden 9,7 1041,1 73 - 292
14:10 3,2 -1,0 3,2 SO 9,7 1041,1 74 - 281
14:15 3,2 -1,1 3,2 SO 8,0 1041,0 74 - 276
14:20 3,2 -1,0 4,8 OSO 8,0 1041,0 74 - 267
14:25 3,2 -1,0 3,2 SO 9,7 1040,9 74 - 260
14:30 3,2 -1,0 4,8 OSO 9,7 1040,8 74 - 251
14:35 3,3 -0,9 3,2 Osten 8,0 1040,7 74 - 244
14:40 3,3 -0,9 1,6 OSO 8,0 1040,7 74 - 239
14:45 3,3 -0,8 3,2 SSO 11,3 1040,6 74 - 229

Laden Sie Ihre Kopie dieses Datensatzes herunter  von WetterUnterground

Unsere Wetterdaten wie bei Weather Underground. Script entwickelt von Jim McMurry. Für die Verwendung der "Template" neu geschrieben Leuven-Template